GFSMW_500_rhum_240.txt.gz
RH
55 49 48 48 51 52 46 40 39 40 35 40 46 40 44 42 36 31 32 31 33 33 36 41 43 42 36 32 31 30 30 27 27 29 28 29 27 28 28 34 33 34 37
57 55 53 51 48 49 46 44 43 42 39 38 42 39 39 34 33 35 36 37 38 43 46 47 43 39 36 34 31 31 35 37 38 36 35 34 37 37 35 36 42 41 39
54 55 57 49 47 45 45 51 49 42 39 41 50 49 45 37 38 41 45 46 47 48 48 46 45 42 36 34 36 41 44 42 38 40 36 31 31 33 40 38 35 36 45
53 55 54 48 50 49 49 58 61 54 48 47 52 60 57 48 50 48 48 49 50 50 46 45 44 40 38 38 41 40 38 35 34 33 37 39 42 38 32 34 33 33 37
57 55 62 53 54 57 56 64 67 66 62 59 64 63 55 52 48 53 52 52 52 50 49 47 47 46 48 43 43 44 41 41 44 46 48 42 37 35 31 27 33 38 36
56 55 62 57 57 57 61 71 72 79 76 73 71 66 65 56 49 47 52 56 54 54 52 53 52 52 45 49 50 52 49 50 48 46 44 40 37 35 31 26 25 28 28
49 53 55 62 62 62 64 69 78 83 82 86 76 79 68 60 56 55 55 55 49 49 51 54 55 51 52 51 52 56 51 52 51 43 40 41 40 36 36 35 32 29 24
52 58 52 60 60 61 64 64 72 81 81 78 80 71 69 66 59 54 56 55 56 57 55 53 53 54 56 59 54 58 58 60 52 44 45 44 45 41 42 33 24 20 10
72 54 55 53 56 59 61 66 74 76 73 74 70 65 65 61 56 59 60 61 59 57 54 53 54 60 64 59 64 62 62 51 48 49 50 52 44 46 34 22 13 5 4
68 61 59 53 55 56 58 64 68 71 72 71 63 61 61 57 59 62 59 59 59 62 63 65 62 66 65 65 69 65 56 55 54 56 58 51 49 32 20 11 6 6 14
60 62 63 58 54 57 62 66 67 70 68 64 60 59 57 62 63 59 62 66 68 70 74 69 64 69 67 66 66 61 59 60 59 61 64 53 31 18 10 6 6 9 12
73 76 71 66 61 58 58 58 63 64 64 62 58 57 61 69 66 66 69 73 75 79 70 68 69 67 67 70 67 62 66 67 65 72 60 31 22 11 8 9 9 13 14
96 98 86 74 70 67 63 65 65 65 67 68 70 66 69 75 76 75 79 81 79 76 70 68 67 70 68 71 69 73 74 69 78 67 40 29 12 8 11 10 11 14 19
96 96 92 80 74 69 69 70 68 68 67 66 68 76 78 84 86 89 87 85 78 71 66 69 68 71 72 74 76 74 77 81 75 46 35 13 7 12 14 13 12 11 19
96 99 92 87 85 78 71 67 70 75 80 84 87 87 89 94 95 91 89 82 74 70 70 69 77 78 78 80 77 82 85 84 53 37 16 8 11 17 18 16 13 11 13
96 96 95 84 80 76 78 83 81 80 84 91 93 94 93 94 93 97 91 78 72 72 76 84 85 86 80 82 83 84 88 62 44 21 8 7 13 19 19 15 12 10 13
97 97 96 85 73 71 76 82 84 85 87 88 92 93 93 96 97 94 84 77 79 75 88 94 95 89 83 89 85 89 70 50 28 10 6 8 14 19 16 13 12 10 12
100 93 90 81 80 85 79 76 83 84 87 91 94 94 98 97 95 87 88 86 83 97 99 98 93 94 88 81 88 74 56 36 12 7 6 11 16 16 15 14 12 9 12
96 95 91 79 77 84 79 80 81 84 88 93 95 96 96 96 94 97 99 96 97 100 97 97 96 95 85 89 79 60 41 16 7 6 7 9 10 9 9 8 8 8 16
91 95 99 99 94 84 84 90 96 97 96 93 96 96 96 97 99 97 97 100 100 100 100 100 95 89 93 89 66 43 17 9 6 6 6 5 5 5 6 6 7 8 38
86 82 81 96 96 96 97 97 96 96 96 91 96 98 97 100 96 99 100 100 100 100 100 100 96 94 93 74 53 25 10 8 6 5 4 4 4 5 6 6 7 20 62
97 97 95 97 98 97 96 96 93 85 85 90 92 91 96 95 95 99 100 100 100 100 100 100 98 98 79 56 29 14 8 7 6 5 5 4 4 5 6 6 15 49 65
95 98 100 99 99 98 98 98 96 97 96 93 92 98 96 96 100 100 100 100 100 100 99 99 99 81 58 32 18 10 9 7 6 6 5 5 5 5 6 11 29 69 41
99 100 100 100 97 97 97 98 97 96 98 100 100 100 100 100 100 100 100 100 99 100 100 100 90 61 38 24 14 9 9 7 6 6 6 5 5 5 7 21 54 67 19
97 96 96 96 94 96 97 98 97 97 99 94 94 98 100 100 100 100 98 98 100 100 100 90 64 43 29 15 10 10 9 6 6 6 6 6 5 6 10 23 56 22 14
95 95 96 96 97 98 98 98 96 90 72 78 86 92 99 100 100 100 100 100 100 100 92 64 42 25 15 11 12 10 8 6 6 6 6 6 6 6 12 23 49 11 16

GFSMW_500_rhum_243.txt.gz
RH
46 49 53 59 54 44 41 41 48 46 43 38 36 35 32 42 43 43 45 41 35 30 31 34 34 35 41 44 44 37 33 32 36 37 36 34 38 37 36 31 36 44 46
41 45 47 60 62 48 44 42 46 44 47 44 50 42 44 48 49 40 39 36 33 34 35 37 41 42 45 48 40 38 40 39 37 35 34 37 42 40 39 34 36 33 38
40 43 46 53 59 56 49 48 43 40 46 48 46 48 49 55 57 50 43 38 37 36 38 43 47 49 48 42 42 41 42 44 42 38 37 38 42 42 43 40 42 40 37
38 50 48 48 58 60 56 51 41 42 45 47 44 44 50 51 50 61 56 49 43 40 44 46 51 48 45 47 42 42 44 42 42 45 48 48 46 39 38 38 37 35 31
47 49 50 50 61 58 52 48 46 46 46 51 50 54 51 55 54 56 55 57 48 47 48 49 48 46 46 45 47 44 44 46 47 50 50 49 48 47 38 33 34 35 33
46 46 53 53 56 60 52 48 49 52 53 59 62 66 61 60 62 56 63 60 52 47 48 52 54 51 48 47 50 49 52 56 56 54 56 52 48 43 40 36 37 31 32
47 46 56 53 53 57 61 56 54 62 68 69 74 78 76 87 82 75 68 63 56 55 55 55 57 52 53 54 54 53 51 53 57 59 60 54 46 43 40 38 34 28 33
42 42 52 50 48 58 61 64 56 68 78 81 81 85 89 96 96 85 76 69 64 58 59 60 56 56 62 62 58 58 56 59 60 62 56 49 47 44 44 40 35 34 40
39 40 42 43 44 54 60 66 65 63 74 85 87 87 96 91 81 80 74 69 63 59 60 62 62 66 67 64 65 60 59 62 60 55 54 52 52 50 44 45 51 48 36
40 36 39 42 47 48 62 62 68 70 72 71 81 84 80 82 87 80 67 61 61 64 67 66 70 71 68 71 69 65 58 59 63 57 58 60 52 50 49 56 48 27 15
55 44 44 48 59 54 54 61 66 68 74 74 74 79 82 81 78 73 64 58 62 68 69 71 76 78 77 74 69 62 63 69 62 65 69 66 55 57 61 56 31 15 9
43 43 57 77 64 68 62 58 62 69 69 70 71 77 77 75 73 71 64 65 70 71 74 83 86 84 81 76 72 66 68 67 74 78 73 62 60 62 62 36 19 11 8
51 44 60 76 92 72 69 68 74 77 74 73 77 77 77 77 73 69 70 71 76 84 90 89 87 86 85 77 70 70 72 78 82 80 72 67 69 62 36 21 12 7 11
74 66 56 69 86 92 82 77 78 74 78 83 78 78 76 73 73 71 73 79 88 95 94 90 92 92 81 76 72 74 79 88 91 86 78 73 64 36 24 15 7 8 14
69 70 63 62 81 94 81 80 76 74 74 74 73 73 76 75 76 78 83 90 98 97 95 97 95 88 78 85 83 85 90 98 100 86 77 71 40 27 18 9 5 7 13
68 69 63 63 77 86 94 84 78 81 83 82 78 85 86 85 82 86 94 100 98 98 97 95 95 82 84 88 92 93 93 100 94 81 77 45 32 24 12 5 5 5 6
71 83 85 73 69 78 96 94 84 84 87 85 83 89 90 89 87 92 100 99 98 97 96 94 82 83 84 89 91 97 100 98 82 81 69 46 30 16 6 3 4 4 5
81 80 86 71 77 84 93 86 84 83 86 84 83 88 87 89 94 99 98 98 96 96 92 83 85 90 87 92 100 100 96 86 82 78 63 42 23 9 4 3 3 4 5
88 78 84 89 88 85 86 86 87 85 78 78 84 87 97 97 98 97 97 96 95 95 85 88 92 92 98 98 96 95 86 80 82 67 46 24 13 5 3 3 4 4 6
81 76 69 85 85 83 91 83 88 86 80 90 92 98 98 97 97 96 88 97 98 90 89 93 91 94 100 100 94 86 84 82 68 48 30 16 8 4 4 4 4 4 6
89 82 72 78 91 79 85 83 92 97 98 98 97 97 97 97 92 91 98 99 92 91 93 93 100 100 97 93 88 84 80 72 47 39 24 11 5 3 4 5 5 5 11
98 99 90 91 93 94 94 93 99 97 97 96 97 95 93 96 99 98 97 96 93 94 96 100 100 100 96 89 84 80 76 53 40 24 11 6 4 4 5 5 5 6 20
96 97 97 98 95 96 97 97 97 97 97 96 96 96 98 98 97 96 97 94 89 91 100 100 100 97 92 89 86 83 58 39 22 11 6 4 4 5 5 6 5 11 33
97 96 96 96 96 95 96 94 98 96 98 97 98 96 98 98 97 95 88 86 100 100 100 100 100 97 93 90 89 68 55 32 14 6 5 5 5 5 5 6 6 13 34
97 97 97 97 97 96 96 98 97 96 98 97 97 98 98 98 95 79 96 100 100 100 100 100 98 94 92 90 76 61 39 20 8 5 5 5 5 5 6 6 6 14 32
97 97 97 97 97 97 97 96 97 97 98 98 98 97 98 96 88 100 100 100 100 100 100 98 95 99 95 76 57 32 20 9 5 5 5 5 5 5 5 6 6 13 30

GFSMW_500_rhum_246.txt.gz
RH
29 31 37 37 42 45 50 45 54 43 38 41 51 43 32 29 32 32 37 50 49 42 39 35 29 25 28 33 39 43 42 37 39 40 39 41 39 38 41 42 44 42 44
25 26 33 36 38 45 49 44 55 52 41 44 55 48 39 45 48 42 44 46 45 45 39 35 32 32 35 38 43 44 43 40 37 38 39 42 48 48 49 46 46 44 43
27 27 28 32 36 45 47 43 56 58 46 44 49 49 47 55 54 50 46 54 55 50 49 41 38 34 35 44 46 49 45 43 42 40 42 45 45 44 53 55 55 55 50
33 33 32 34 34 44 47 42 47 57 59 49 44 47 49 49 51 55 53 54 54 62 58 53 49 46 48 51 52 52 47 46 46 48 55 50 47 41 33 47 56 48 48
30 31 40 43 47 43 43 48 46 55 66 61 43 49 50 52 58 58 56 56 57 64 55 60 53 50 53 53 52 52 53 50 51 55 56 54 49 49 46 40 40 40 44
32 34 35 49 52 48 47 48 46 52 70 61 47 50 55 58 61 63 63 58 60 62 57 60 56 52 54 56 58 61 56 56 59 62 60 55 54 52 46 41 41 41 43
32 35 49 49 52 52 44 49 48 52 62 64 53 53 58 61 67 69 65 70 76 77 74 67 61 59 59 62 66 64 63 65 66 69 66 64 60 53 48 46 44 40 35
27 36 47 54 42 41 41 46 47 53 56 67 60 58 64 62 76 78 77 85 92 86 78 67 66 62 64 69 71 70 71 71 74 75 71 68 58 54 52 50 45 32 32
35 37 42 59 47 40 38 42 42 50 57 67 69 68 65 71 83 76 81 90 93 96 82 77 72 70 72 78 78 78 75 77 79 75 73 66 58 56 55 57 59 53 42
41 36 48 67 64 49 38 38 42 49 59 62 73 73 76 70 84 89 94 97 100 98 86 82 77 70 78 84 84 78 79 83 79 80 75 63 61 58 59 59 66 61 57
52 54 62 57 55 48 49 43 52 53 64 68 68 74 76 74 72 94 90 100 91 91 88 84 82 78 88 88 89 84 89 80 86 82 75 80 70 60 69 67 66 60 47
62 66 64 54 48 39 47 54 64 62 72 74 73 78 78 80 85 86 97 91 94 90 85 82 82 87 92 95 93 94 84 85 92 83 85 71 70 72 68 71 63 53 32
70 76 66 58 58 53 47 54 57 65 68 84 87 82 84 88 91 96 90 96 98 88 87 88 92 94 98 100 95 91 93 95 85 78 80 80 74 72 73 67 58 36 24
76 81 78 74 64 65 66 67 62 68 73 76 81 90 95 96 94 92 92 98 92 88 89 93 97 99 100 100 91 95 95 92 79 83 85 81 77 77 70 62 44 27 19
80 73 68 74 72 69 62 58 68 60 66 75 79 84 85 87 93 99 97 94 91 88 93 99 99 100 100 95 96 95 94 82 86 92 94 86 84 75 64 50 31 21 12
64 62 61 74 68 63 58 57 70 74 70 76 81 84 83 92 96 98 97 91 85 91 96 98 98 98 100 96 96 93 88 88 91 97 92 91 83 70 55 34 24 13 7
76 61 63 69 66 70 64 56 63 78 80 84 83 84 88 94 92 89 89 92 95 96 96 97 97 98 99 97 97 95 87 89 100 95 92 87 75 64 42 28 17 8 4
84 53 56 74 70 82 70 72 67 86 88 80 86 90 92 98 93 92 97 96 94 96 97 98 95 96 99 99 97 89 92 100 98 98 92 78 72 52 35 21 12 4 3
58 57 52 58 62 69 72 75 72 81 80 86 86 97 97 96 92 92 88 89 95 98 97 97 97 94 93 95 92 88 99 98 100 96 85 76 62 43 26 16 7 3 4
86 91 72 67 66 68 86 80 72 82 88 93 100 97 97 98 97 94 94 96 98 97 97 97 95 94 98 96 87 93 100 100 99 95 83 69 50 30 18 10 3 3 4
76 90 85 73 59 72 86 80 73 78 96 93 98 98 96 95 98 98 97 97 97 98 97 95 99 98 97 87 90 96 100 100 99 88 76 57 35 21 11 4 2 3 4
83 96 93 73 67 70 90 91 83 79 91 99 97 97 96 97 97 97 98 97 97 97 98 99 97 96 90 90 99 98 99 98 92 83 66 42 26 15 6 3 3 3 4
72 72 69 67 73 78 100 99 86 92 94 98 97 96 97 97 98 97 97 97 98 98 97 96 92 87 95 97 99 100 98 94 87 74 52 31 18 7 3 3 3 4 4
97 80 66 72 88 94 97 97 99 97 97 97 97 97 98 98 97 97 98 98 97 97 96 89 93 94 100 100 100 100 99 91 81 61 37 19 9 4 4 6 5 4 4
100 98 98 98 97 97 97 97 98 97 98 98 97 97 98 97 98 98 98 98 98 97 94 92 97 99 100 100 100 100 97 84 72 49 24 10 4 6 10 10 11 10 6
99 100 97 96 97 97 97 97 98 97 97 97 98 97 96 98 98 98 98 98 97 95 99 100 97 99 98 100 100 98 90 79 57 33 14 6 6 11 10 10 11 12 14

GFSMW_500_rhum_252.txt.gz
RH
16 18 20 22 23 23 33 32 29 30 36 43 45 46 54 54 46 42 41 44 41 35 40 44 45 46 48 50 46 43 40 40 46 49 50 48 50 52 53 53 51 48 56
16 18 21 20 21 24 32 40 37 38 43 46 46 43 44 52 56 48 42 53 46 45 60 77 54 46 54 53 56 58 53 53 52 50 49 52 53 54 58 55 57 56 56
17 20 18 18 18 23 30 31 42 40 42 50 54 51 49 51 60 63 51 50 46 44 54 62 53 53 55 54 59 58 56 57 55 55 56 55 58 61 63 61 60 60 66
17 19 17 20 23 23 30 27 33 38 41 50 49 54 53 59 68 71 68 59 54 61 67 57 60 63 67 59 60 62 65 65 63 62 60 60 56 56 73 81 73 80 88
15 16 20 25 20 20 21 31 33 37 44 45 51 52 54 58 64 70 75 73 67 64 61 58 62 71 71 69 68 70 68 65 66 66 64 61 55 52 54 67 86 100 98
16 18 21 26 21 19 20 30 32 42 32 48 53 48 49 56 59 66 78 80 78 68 74 66 68 76 73 72 77 77 78 74 73 73 72 63 58 61 67 71 78 82 98
25 22 20 20 19 17 22 27 32 37 40 46 53 46 45 51 61 72 83 82 82 74 75 75 72 74 79 77 76 80 84 88 85 79 78 72 70 78 81 80 80 84 90
26 30 30 32 24 26 21 27 33 35 39 57 62 62 46 52 56 68 94 91 74 75 75 76 84 88 81 74 72 79 85 98 93 85 87 80 81 80 80 85 80 78 74
57 31 30 28 34 29 25 25 26 34 36 63 64 54 65 67 68 62 71 82 83 73 73 86 92 96 92 80 83 80 94 97 92 92 95 87 83 78 86 87 80 70 57
61 65 41 32 30 28 29 31 25 37 49 60 58 54 70 71 78 74 82 81 81 78 81 94 96 96 89 94 83 96 91 94 91 97 92 88 80 86 97 92 83 77 63
87 84 71 58 46 40 36 32 34 40 56 65 60 63 60 64 81 85 87 90 87 80 96 95 95 89 91 90 88 90 97 95 92 96 89 90 83 95 95 90 86 82 61
76 81 74 68 58 47 43 45 52 52 64 71 66 64 65 71 79 76 72 69 80 94 97 98 96 93 95 95 92 94 99 93 99 96 89 89 89 96 95 93 91 77 58
66 69 70 78 68 59 66 68 61 64 70 80 71 71 72 71 73 81 80 75 79 90 96 93 96 90 91 92 93 99 97 92 96 98 93 92 95 96 97 94 86 70 56
90 80 69 72 77 84 77 73 81 71 80 81 71 71 65 62 74 86 84 73 79 84 93 97 96 86 94 98 96 97 96 90 98 97 95 94 96 97 98 95 76 52 46
85 79 67 84 87 82 100 99 97 79 77 71 58 60 57 61 72 78 78 77 82 86 77 96 80 85 97 95 98 97 96 96 97 95 92 96 97 98 97 93 59 42 40
97 100 87 91 78 79 88 100 98 86 83 60 67 74 76 78 78 81 83 73 70 72 77 83 96 93 97 95 94 98 97 98 97 96 94 98 97 97 96 66 49 45 54
89 67 76 66 75 96 97 90 96 84 67 65 67 82 91 94 87 83 76 78 79 75 81 94 99 97 98 90 96 97 98 96 97 98 97 97 97 97 79 63 59 62 56
97 94 91 95 75 76 93 97 87 62 57 66 79 78 68 89 83 85 94 95 87 73 76 93 96 96 96 100 98 98 96 97 96 97 97 96 98 94 73 60 65 66 60
93 96 98 74 92 89 90 69 55 61 70 78 70 48 36 54 69 83 96 88 82 78 82 99 100 98 95 97 96 98 97 97 98 97 97 96 98 88 64 70 71 64 63
93 92 92 99 81 55 51 54 45 40 79 94 78 25 23 63 87 87 89 89 85 84 84 98 97 97 98 91 97 97 96 98 96 97 97 97 96 77 78 76 69 63 58
50 75 68 91 69 64 67 38 37 28 60 47 22 27 41 89 96 89 93 92 93 86 85 93 98 97 97 95 98 97 98 97 97 97 96 96 93 88 82 73 65 61 52
24 30 38 94 85 63 42 26 20 13 21 21 28 47 75 98 98 96 86 86 92 92 97 96 97 97 97 98 97 98 98 97 96 97 95 96 92 86 76 68 61 56 45
27 19 19 37 43 36 22 15 11 9 9 10 32 65 86 98 98 100 100 99 96 96 98 98 97 97 96 98 98 98 98 97 96 96 97 93 89 81 73 67 61 61 42
83 38 37 44 24 15 11 8 10 16 28 42 59 69 56 79 97 97 98 97 98 98 98 98 98 98 98 97 98 98 98 97 97 98 96 97 88 78 72 68 64 60 36
100 85 90 92 100 70 65 32 35 43 48 49 55 68 79 96 97 98 98 98 98 97 98 98 98 97 98 98 98 98 98 99 98 98 98 95 86 77 75 64 69 50 27
92 98 99 99 87 99 88 79 63 56 56 51 84 90 96 98 97 98 98 98 97 98 98 96 97 97 98 98 97 98 98 98 98 97 97 94 85 79 71 71 65 42 19

GFSMW_500_rhum_255.txt.gz
RH
18 14 14 17 17 20 22 23 33 35 33 34 47 48 50 48 48 52 62 62 56 50 53 58 43 46 51 49 48 54 54 51 50 48 47 46 46 48 49 53 53 52 52
18 17 14 16 19 21 18 18 23 34 41 42 41 42 55 53 54 52 59 67 67 63 51 53 52 68 82 64 53 57 58 57 60 54 50 51 52 55 58 58 57 57 58
17 17 18 17 20 18 16 18 28 30 28 34 40 42 50 52 54 57 60 76 74 66 59 54 56 59 74 68 64 65 65 69 67 61 66 65 66 67 68 62 58 59 60
19 16 17 21 32 22 23 25 23 25 25 32 37 44 46 54 56 58 62 67 72 79 71 65 59 64 75 66 67 69 72 72 79 80 75 75 77 77 75 73 65 62 68
15 15 16 16 16 16 21 28 24 19 21 33 37 40 47 56 54 54 58 63 63 68 78 84 72 66 65 59 62 64 69 74 87 91 85 82 82 84 81 81 79 80 80
17 16 20 19 16 17 19 26 28 23 23 33 37 39 43 60 55 52 55 55 68 71 76 90 89 81 73 76 64 63 66 69 74 79 82 83 90 90 82 76 80 88 95
33 29 28 33 21 17 19 21 20 20 20 35 38 43 47 59 58 61 67 72 76 66 86 96 94 89 78 79 81 73 70 68 70 78 76 84 93 91 78 73 72 77 88
37 33 33 39 25 20 20 20 21 21 20 33 36 47 51 50 60 60 71 81 83 76 74 83 96 90 83 81 91 84 83 76 76 83 85 87 98 87 81 80 73 71 75
53 58 54 43 32 27 27 22 23 23 25 38 39 38 54 56 67 63 78 94 95 91 86 80 83 88 95 95 92 93 92 90 84 83 91 99 93 91 92 79 76 72 74
64 58 51 39 38 46 42 33 27 24 27 32 30 31 53 60 70 65 75 97 96 95 95 96 92 87 92 97 94 96 97 96 94 83 88 90 93 90 97 92 77 74 82
41 48 58 67 56 43 57 58 56 33 30 28 30 31 59 66 70 64 79 92 96 93 91 94 86 84 90 95 95 96 96 96 93 87 90 86 95 95 97 80 71 77 87
24 32 43 53 59 50 53 62 59 45 42 42 40 38 61 71 79 72 80 95 91 86 85 94 86 84 97 100 79 84 92 96 96 96 92 94 97 96 96 85 73 81 87
11 19 35 42 52 60 58 56 61 58 55 59 60 53 63 75 86 80 82 88 85 81 83 90 78 89 99 94 98 86 95 96 96 96 95 97 97 95 95 80 80 85 88
12 12 22 40 47 58 48 52 65 72 70 68 68 68 78 84 89 85 85 86 90 93 97 92 71 79 84 96 97 96 92 89 94 98 97 97 97 97 97 83 85 91 89
26 22 27 23 56 59 52 66 56 80 78 72 78 78 93 90 91 84 81 79 87 97 96 91 79 76 96 95 93 95 96 97 97 97 97 97 98 97 96 94 94 95 87
32 51 90 80 55 60 84 88 70 76 85 78 80 82 87 87 87 86 78 82 88 100 98 91 90 86 81 89 95 93 80 94 96 97 97 97 97 96 96 98 95 98 85
14 27 56 72 84 99 98 98 100 88 73 78 67 74 76 81 89 92 91 86 95 97 89 88 78 76 78 73 74 70 82 97 98 97 97 97 97 97 97 96 96 93 77
13 31 27 53 73 84 96 99 100 100 98 80 68 62 75 90 86 81 90 97 89 83 70 64 68 71 73 73 81 82 96 94 97 97 97 97 97 96 98 95 97 87 72
29 64 50 42 71 91 94 89 97 98 95 87 95 97 95 97 95 94 88 95 91 73 61 72 79 86 89 80 83 93 99 99 98 98 97 98 98 98 99 100 94 79 78
32 72 91 43 36 53 95 97 99 92 85 83 93 100 96 96 93 88 94 96 96 78 84 80 79 85 92 89 83 87 86 98 98 96 97 98 98 98 99 98 94 92 82
14 31 64 70 64 54 60 92 94 94 99 98 96 96 100 96 95 100 98 97 97 74 91 89 84 90 95 95 98 93 91 99 97 96 98 98 98 98 99 99 98 94 79
44 37 41 75 87 61 47 83 86 81 100 99 92 90 83 63 66 83 95 95 82 68 94 93 92 92 98 99 97 88 99 96 97 97 98 98 98 98 98 100 97 90 82
44 45 87 75 82 55 45 49 93 80 77 98 90 83 72 45 43 52 64 68 63 71 95 100 100 95 100 97 97 97 94 97 96 96 98 98 98 98 97 98 97 96 81
40 40 47 51 71 74 50 31 51 66 54 63 72 55 41 31 34 29 39 43 59 71 66 97 98 97 94 94 99 100 96 96 98 98 98 98 99 99 98 98 97 85 72
34 36 46 77 77 87 64 51 19 14 26 60 41 28 27 20 12 24 32 49 59 57 92 98 99 97 96 96 99 97 98 98 98 98 98 100 99 98 98 97 94 91 66
32 31 38 68 32 80 78 65 36 17 15 26 26 14 15 10 10 22 53 70 66 99 100 98 98 96 96 98 100 98 98 97 98 98 99 100 99 99 98 98 96 84 63